Gassim, Saudi Arabia

4:38 PM +03 on July 21, 2017 (GMT +0300)
Gassim

Weather History for OEGS - November, 2012

Change the Weather History Date:

Wednesday, November 7, 2012

  Actual Average Record
Temperature  
Mean Temperature 78 °F -  
Max Temperature 95 °F 75 °F 95 °F (2012)
Min Temperature 60 °F 52 °F 52 °F (2014)
Cooling Degree Days 12    
Growing Degree Days 28 (Base 50)    
Moisture  
Dew Point 46 °F    
Average Humidity 31    
Maximum Humidity 52    
Minimum Humidity 14    
Precipitation  
Precipitation 0.00 in - - ()
Sea Level Pressure  
Sea Level Pressure 30.04 in    
Wind  
Wind Speed 4 mph ()    
Max Wind Speed 9 mph    
Max Gust Speed -    
Visibility 6.1 miles    
Events      
Averages and records for this station are not official NWS values.
T = Trace of Precipitation, MM = Missing Value Source: Averaged Metar Reports

Daily Weather History Graph

Daily Weather History Graph

Search for Another Location

Airport or City:

Trip Planner

Search our weather history database for the weather conditions in past years. The results will help you decide how hot, cold, wet, or windy it might be!

Date:

Astronomy

Nov. 07, 2012 Rise Set
Actual Time 6:18 AM +03 5:18 PM +03
Civil Twilight 5:53 AM +03 5:42 PM +03
Nautical Twilight 5:26 AM +03 6:10 PM +03
Astronomical Twilight 4:59 AM +03 6:37 PM +03
Moon No Moon Rise 12:38 PM +03 (11/7)
Length of Visible Light 11h 48m
Length of Day
11h 00m
Waning Gibbous, 46% of the Moon is Illuminated
Nov 7
Waning Gibbous
Nov 14
New
Nov 20
First Quarter
Nov 28
Full
Dec 6
Last Quarter

Hourly Weather History & Observations

Time (+03) Temp. Dew Point Humidity Pressure Visibility Wind Dir Wind Speed Gust Speed Precip Events Conditions
12:00 AM 73 °F 43 °F 23% 29.96 in 6 mi East 6.9 mph - -  
12:00 AM 73.4 °F 42.8 °F 33% 30.06 in - East 6.9 mph - N/A   Clear
1:00 AM 73.4 °F 44.6 °F 36% 30.06 in - East 4.6 mph - N/A   Clear
2:00 AM 71.6 °F 44.6 °F 38% 30.06 in - East 2.3 mph - N/A   Clear
3:00 AM 71 °F 45 °F 27% 29.92 in 6 mi ESE 2.3 mph - -   Partly Cloudy
3:00 AM 71.6 °F 44.6 °F 38% 30.04 in - ESE 2.3 mph - N/A   Clear
4:00 AM 68.0 °F 41.0 °F 37% 30.04 in - Calm Calm - N/A   Clear
5:00 AM 64.4 °F 41.0 °F 42% 30.06 in - Calm Calm - N/A   Clear
6:00 AM 64 °F 43 °F 34% 29.98 in 6 mi Calm Calm - -  
6:00 AM 64.4 °F 42.8 °F 45% 30.06 in - Calm Calm - N/A   Clear
7:00 AM 62.6 °F 44.6 °F 52% 30.09 in - East 3.5 mph - N/A   Clear
8:00 AM 68.0 °F 44.6 °F 43% 30.12 in - Calm Calm - N/A   Clear
9:00 AM 75 °F 46 °F 25% 30.02 in 6 mi SW 4.6 mph - -  
9:00 AM 75.2 °F 46.4 °F 36% 30.12 in - SW 4.6 mph - N/A   Clear
10:00 AM 80.6 °F 48.2 °F 32% 30.12 in - South 9.2 mph - N/A   Clear
11:00 AM 86.0 °F 50.0 °F 29% 30.09 in - SSE 5.8 mph - N/A   Clear
12:00 PM 89.6 °F 50.0 °F 26% 30.09 in - South 5.8 mph - N/A   Clear
1:00 PM 91.4 °F 50.0 °F 24% 30.06 in - ESE 9.2 mph - N/A   Clear
2:00 PM 93.2 °F 50.0 °F 23% 30.04 in - East 9.2 mph - N/A   Clear
3:00 PM 93 °F 50 °F 14% 29.88 in 6 mi ENE 9.2 mph - -  
3:00 PM 93.2 °F 50.0 °F 23% 30.01 in - ENE 9.2 mph - N/A   Clear
4:00 PM 91.4 °F 50.0 °F 24% 30.01 in - SE 5.8 mph - N/A   Clear
5:00 PM 89.6 °F 48.2 °F 24% 30.04 in 6.2 mi East 9.2 mph - N/A   Scattered Clouds
6:00 PM 86 °F 48 °F 17% 29.93 in 6 mi East 5.8 mph - -   Mostly Cloudy
6:00 PM 86.0 °F 48.2 °F 27% 30.04 in 6.2 mi East 5.8 mph - N/A   Scattered Clouds
7:00 PM 84.2 °F 46.4 °F 27% 30.04 in 6.2 mi ENE 5.8 mph - N/A   Scattered Clouds
9:00 PM 79 °F 46 °F 21% 29.96 in 6 mi East 8.1 mph - -   Partly Cloudy
9:00 PM 78.8 °F 46.4 °F 32% 30.06 in - East 8.1 mph - N/A   Clear
10:00 PM 77.0 °F 44.6 °F 32% 30.06 in - East 6.9 mph - N/A   Clear
11:00 PM 75.2 °F 44.6 °F 34% 30.06 in - East 6.9 mph - N/A   Clear